Miscellaneous Local Product
Issued by NWS North Platte, NE

Home | Current Version | Previous Version | Graphics & Text | Print | Product List | Glossary On
Versions: 1 2 3 4 5 6 7 8 9 10 11 12 13 14 15 16 17 18 19 20 21 22 23 24 25 26 27 28 29 30 31 32 33 34 35 36 37 38 39 40 41 42 43 44 45 46 47 48 49 50
000
AXUS43 KLBF 170510
MISLBF


WESTERN AND NORTH CENTRAL NEBRASKA HOURLY WEATHER ROUNDUP
NATIONAL WEATHER SERVICE NORTH PLATTE NE
1100 PM CST FRI FEB 16 2018

NOTE: "FAIR" INDICATES FEW OR NO CLOUDS BELOW 12,000 FEET WITH NO
SIGNIFICANT WEATHER AND/OR OBSTRUCTIONS TO VISIBILITY.

NOTE: STATIONS NOT REPORTING VARIABLES SUCH AS SKY/WEATHER OR
PRESSURE ARE PROVIDED BY RAWS AND APRS NETWORKS AND ARE NOT UNDER
NATIONAL WEATHER SERVICE QUALITY CONTROL.

...OBSERVATIONS IN AND NEAR THE EASTERN PANHANDLE OF NEBRASKA...

CITY           SKY/WX    TMP DP  RH WIND       PRES   REMARKS
PINE RIDGE     FLURRIES  31  22  69 NW9       29.83R WCI  23
GORDON         CLOUDY    33  22  64 W7        29.79R WCI  26
CHADRON        CLOUDY    28  21  75 SE8       29.81F WCI  20
ALLIANCE       CLOUDY    38  21  50 W17G39    29.81R WCI  28
SIDNEY         CLOUDY    34  24  67 NW7       29.83R WCI  28
$$

...OBSERVATIONS IN NORTHERN NEBRASKA AND FAR SOUTHERN SOUTH DAKOTA...

CITY           SKY/WX    TMP DP  RH WIND       PRES   REMARKS
WINNER         CLOUDY    31  24  75 N5        29.85F WCI  26
VALENTINE      CLOUDY    33  22  63 SW18G26   29.79F WCI  22
AINSWORTH      CLOUDY    29  23  76 S17       29.82F WCI  17
O`NEILL        PTCLDY    29  20  69 S14G20    29.90F WCI  19
THEDFORD       CLOUDY    32  22  66 S16G22    29.83F WCI  21
BROKEN BOW     CLOUDY    30  19  63 S13G22    29.90F WCI  20
ORD            PTCLDY    28  18  66 SE6       29.94F WCI  22
ALBION         PTCLDY    27  18  69 S13       29.98F WCI  16
$$

...OBSERVATIONS IN SOUTHWEST NEBRASKA AND FAR NORTHEAST COLORADO...

CITY           SKY/WX    TMP DP  RH WIND       PRES   REMARKS
WRAY           CLOUDY    32  21  64 SW3       29.83F
HOLYOKE        FAIR      34  27  75 SW7       29.84S WCI  28
IMPERIAL       MOCLDY    31  21  66 S7        29.85F WCI  24
OGALLALA       MOCLDY    33  24  69 W12       29.86R WCI  25
NORTH PLATTE   PTCLDY    32  19  58 S14       29.87F WCI  22
MCCOOK         CLOUDY    30  20  66 S9        29.90F WCI  22
LEXINGTON      MOCLDY    30  20  66 S15       29.91F WCI  19
GOTHENBURG       N/A     29  17  61 S6          N/A  WCI  23
CALLAWAY         N/A     28  22  76 S21         N/A  WCI  15
$$

...OBSERVATIONS IN CENTRAL LINCOLN COUNTY AREA...

CITY           SKY/WX    TMP DP  RH WIND       PRES   REMARKS
N.P. AIRPORT   PTCLDY    32  19  58 S14       29.87F WCI  22
$$

...OBSERVATIONS ACROSS THE ROCKIES AND WESTERN HIGH PLAINS...

CITY           SKY/WX    TMP DP  RH WIND       PRES   REMARKS
RAPID CITY     CLOUDY    29  19  66 NW9       29.82S WCI  20
SCOTTSBLUFF    CLOUDY    40  18  41 W35G45    29.82S WCI  28
CHEYENNE       CLEAR     32  13  45 W35G46    29.77F WCI  17
DENVER         PTCLDY    40  11  30 W26G36    29.79F WCI  29
BERTHOUD PASS  LGT SNOW   7  -4  61 W52       29.76F VSB 1   WCI -22
COPPER MTN     CLOUDY    18   9  68 W18G25    29.93S HAZE    WCI   2
MONARCH PASS     N/A     10   9  92 SW38G47   30.07F WCI -14
ASPEN          PTCLDY    16  11  80 S7        29.99F WCI   6
LARAMIE        PTCLDY    22  14  71 W21G35    29.83F WCI   6
CASPER         PTCLDY    25  11  55 SW15      29.84R WCI  13
$$

...OBSERVATIONS ACROSS THE NORTHERN PLAINS...

CITY           SKY/WX    TMP DP  RH WIND       PRES   REMARKS
BISMARCK       MOCLDY    24  18  77 CALM      29.81R
FARGO          CLOUDY    24  17  74 SW15      29.81S WCI  11
PIERRE         CLOUDY    22  19  89 S6        29.86R WCI  14
SIOUX FALLS    CLOUDY    23  16  74 S12       29.95F WCI  12
$$

...OBSERVATIONS ACROSS THE CENTRAL AND SOUTHERN PLAINS...

CITY           SKY/WX    TMP DP  RH WIND       PRES   REMARKS
OMAHA          CLOUDY    26  13  57 S12       30.12F WCI  16
GRAND ISLAND   CLOUDY    26  16  65 S13       30.00F WCI  15
KANSAS CITY    CLOUDY    28   9  44 SE7       30.18F WCI  21
WICHITA        PTCLDY    36  17  46 SE12      30.12F WCI  28
DODGE CITY     CLOUDY    31  14  49 S18       30.00F WCI  19
OKLAHOMA CITY  LGT RAIN  38  31  76 SE7       30.13F WCI  33
DALLAS         LGT RAIN  47  34  60 N6        30.14F
AMARILLO       CLOUDY    37  34  89 S20       30.06F WCI  27
$$




USA.gov is the U.S. government's official web portal to all federal, state and local government web resources and services.